Hilo, HI

4:57 PM HST on August 28, 2016 (GMT -1000)
Hilo International

Weather History for PHTO - July, 2013

Change the Weather History Date:

Monday, July 29, 2013

  Actual Average Record
Temperature  
Mean Temperature 80 °F 76 °F  
Max Temperature 84 °F 83 °F 89 °F (1986)
Min Temperature 75 °F 70 °F 63 °F (1956)
Degree Days  
Heating Degree Days 0 0  
Month to date heating degree days 0 0  
Since 1 June heating degree days 0 0  
Since 1 July heating degree days 0 0  
Cooling Degree Days 15 11  
Month to date cooling degree days 351 319  
Year to date cooling degree days 1825 1693  
Since 1 June cooling degree days 672 625  
Growing Degree Days 28 (Base 50)    
Moisture  
Dew Point 70 °F    
Average Humidity 75    
Maximum Humidity 94    
Minimum Humidity 55    
Precipitation  
Precipitation 0.15 in 0.38 in 2.67 in (1997)
Month to date precipitation 3.67 10.06  
Year to date precipitation 55.22 69.34  
Snow  
Snow 0.00 in - - ()
Month to date snowfall 0.0  
Since 1 June snowfall 0.0  
Since 1 July snowfall 0.0  
Snow Depth 0.00 in    
Sea Level Pressure  
Sea Level Pressure 29.88 in    
Wind  
Wind Speed 11 mph (South)    
Max Wind Speed 26 mph    
Max Gust Speed 38 mph    
Visibility 10 miles    
Events Rain    
T = Trace of Precipitation, MM = Missing Value Source: NWS Daily Summary

Daily Weather History Graph

Daily Weather History Graph

Search for Another Location

Airport or City:

Trip Planner

Search our weather history database for the weather conditions in past years. The results will help you decide how hot, cold, wet, or windy it might be!

Date:

Astronomy

Jul. 29, 2013 Rise Set
Actual Time 5:55 AM HST 6:57 PM HST
Civil Twilight 5:31 AM HST 7:21 PM HST
Nautical Twilight 5:03 AM HST 7:49 PM HST
Astronomical Twilight 4:35 AM HST 8:17 PM HST
Moon No Moon Rise 12:37 PM HST
Length of Visible Light 13h 49m
Length of Day
13h 02m
Waning Gibbous, 48% of the Moon is Illuminated
Jul 29
Waning Gibbous
Aug 6
New
Aug 14
First Quarter
Aug 20
Full
Aug 27
Last Quarter

Hourly Weather History & Observations

Time (HST) Temp. Heat Index Dew Point Humidity Pressure Visibility Wind Dir Wind Speed Gust Speed Precip Events Conditions
12:53 AM 77.0 °F - 71.1 °F 82% 29.89 in 10.0 mi NNW 13.8 mph - 0.00 in Rain Light Rain
1:53 AM 75.9 °F - 72.0 °F 87% 29.86 in 10.0 mi NNW 10.4 mph - 0.03 in Rain Light Rain
2:25 AM 75.9 °F - 72.0 °F 87% 29.86 in 8.0 mi NNW 12.7 mph - 0.00 in Rain Light Rain
2:53 AM 75.0 °F - 72.0 °F 90% 29.84 in 10.0 mi North 8.1 mph - 0.02 in   Overcast
3:53 AM 75.9 °F - 73.0 °F 91% 29.83 in 10.0 mi NNW 12.7 mph - 0.03 in Rain Light Rain
4:22 AM 75.9 °F - 72.0 °F 87% 29.83 in 10.0 mi NNW 11.5 mph - 0.00 in   Overcast
4:46 AM 75.9 °F - 73.0 °F 91% 29.83 in 8.0 mi NNW 9.2 mph - 0.01 in Rain Light Rain
4:53 AM 75.9 °F - 72.0 °F 87% 29.82 in 10.0 mi NNW 10.4 mph - 0.01 in Rain Light Rain
5:53 AM 77.0 °F - 71.1 °F 82% 29.82 in 10.0 mi NW 6.9 mph - 0.00 in   Scattered Clouds
6:53 AM 78.1 °F - 71.1 °F 79% 29.82 in 10.0 mi NW 11.5 mph - N/A   Mostly Cloudy
7:53 AM 77.0 °F - 69.1 °F 76% 29.83 in 10.0 mi West 5.8 mph - N/A   Mostly Cloudy
8:53 AM 81.0 °F 84.4 °F 70.0 °F 69% 29.84 in 10.0 mi NNW 5.8 mph - 0.00 in   Mostly Cloudy
9:53 AM 81.0 °F 85.2 °F 72.0 °F 74% 29.84 in 10.0 mi SSE 10.4 mph 17.3 mph N/A   Mostly Cloudy
10:53 AM 82.9 °F 85.8 °F 68.0 °F 60% 29.84 in 10.0 mi SSE 11.5 mph - N/A   Overcast
11:53 AM 84.0 °F 86.5 °F 66.9 °F 56% 29.83 in 10.0 mi South 20.7 mph 32.2 mph N/A   Overcast
12:53 PM 80.1 °F 82.3 °F 66.9 °F 64% 29.83 in 10.0 mi South 15.0 mph 31.1 mph 0.00 in Rain Light Rain
1:53 PM 75.0 °F - 70.0 °F 84% 29.84 in 7.0 mi SSE 11.5 mph - 0.06 in Rain Light Rain
2:53 PM 78.1 °F - 68.0 °F 71% 29.84 in 10.0 mi SSE 8.1 mph - 0.00 in   Mostly Cloudy
3:53 PM 81.0 °F 84.1 °F 69.1 °F 67% 29.84 in 10.0 mi South 9.2 mph - N/A   Mostly Cloudy
4:53 PM 82.0 °F 84.5 °F 66.9 °F 60% 29.87 in 10.0 mi SSE 11.5 mph - N/A   Mostly Cloudy
5:53 PM 81.0 °F 82.7 °F 64.9 °F 58% 29.88 in 10.0 mi SE 13.8 mph 24.2 mph N/A   Mostly Cloudy
6:06 PM 80.1 °F 82.3 °F 66.9 °F 64% 29.88 in 10.0 mi SE 15.0 mph 24.2 mph N/A   Mostly Cloudy
6:53 PM 80.1 °F 82.3 °F 66.9 °F 64% 29.92 in 10.0 mi SE 15.0 mph 24.2 mph N/A   Mostly Cloudy
7:53 PM 78.1 °F - 68.0 °F 71% 29.96 in 10.0 mi SSE 11.5 mph - N/A   Mostly Cloudy
8:53 PM 78.1 °F - 68.0 °F 71% 29.99 in 10.0 mi ESE 8.1 mph - N/A   Overcast
9:53 PM 77.0 °F - 70.0 °F 79% 30.01 in 10.0 mi SE 10.4 mph - N/A   Overcast
10:53 PM 75.9 °F - 70.0 °F 82% 30.02 in 10.0 mi South 8.1 mph - 0.00 in Rain Light Rain
11:46 PM 75.0 °F - 71.1 °F 87% 30.02 in 10.0 mi SSW 4.6 mph - 0.00 in   Overcast
11:53 PM 75.0 °F - 71.1 °F 87% 30.02 in 10.0 mi SSW 4.6 mph - 0.00 in   Overcast